Location: Cactus School
(34.5700°N, 118.0931°W)
Time: 09:35:52
(UTC-07:00)

deb Explorer IX - All Passes

Search period start: 13 April 2024 00:00
Search period end: 23 April 2024 00:00
Orbit: 513 x 905 km, 38.7° (Epoch: 12 April)

Date Brightness Start Highest point End Pass type
(mag) Time Alt. Az. Time Alt. Az. Time Alt. Az.
13 Apr - 13:16:33 10° SW 13:22:16 40° SSE 13:27:56 10° E daylight
13 Apr - 15:00:33 10° WSW 15:06:48 82° NNW 15:12:46 10° ENE daylight
13 Apr - 16:45:51 10° W 16:51:51 57° N 16:57:22 10° ENE daylight
13 Apr - 18:31:00 10° WNW 18:36:51 78° NNE 18:42:03 10° ESE daylight
13 Apr - 20:16:10 10° W 20:21:08 36° SSW 20:25:34 10° SSE visible
14 Apr - 12:19:05 10° SSW 12:24:07 27° SE 12:29:12 10° E daylight
14 Apr - 14:02:11 10° WSW 14:08:24 79° SSE 14:14:31 10° ENE daylight
14 Apr - 15:47:14 10° W 15:53:21 60° N 15:59:08 10° ENE daylight
14 Apr - 17:32:29 10° WNW 17:38:28 65° N 17:43:54 10° E daylight
14 Apr - 19:17:31 10° WNW 19:23:05 56° SSW 19:28:03 10° SE daylight
14 Apr - 21:04:21 10° WSW 21:06:43 13° SW 21:08:58 10° SSW visible
15 Apr - 11:22:15 10° S 11:26:03 17° SE 11:29:55 10° E daylight
15 Apr - 13:04:00 10° SW 13:10:03 59° SSE 13:16:08 10° ENE daylight
15 Apr - 14:48:36 10° W 14:54:50 68° NNW 15:00:50 10° ENE daylight
15 Apr - 16:33:54 10° WNW 16:39:59 59° N 16:45:37 10° E daylight
15 Apr - 18:18:55 10° WNW 18:24:51 79° SSW 18:30:11 10° ESE daylight
15 Apr - 20:04:34 10° W 20:08:50 23° SW 20:12:46 10° SSE visible
16 Apr - 12:06:07 10° SW 12:11:45 41° SSE 12:17:33 10° E daylight
16 Apr - 13:50:04 10° WSW 13:56:18 80° NNW 14:02:29 10° ENE daylight
16 Apr - 15:35:16 10° W 15:41:25 58° N 15:47:14 10° E daylight
16 Apr - 17:20:21 10° WNW 17:26:29 81° NNE 17:32:03 10° ESE daylight
16 Apr - 19:05:32 10° W 19:10:48 37° SW 19:15:35 10° SSE daylight
17 Apr - 11:08:35 10° SSW 11:13:31 28° SE 11:18:40 10° E daylight
17 Apr - 12:51:40 10° WSW 12:57:47 82° SSE 13:04:02 10° ENE daylight
17 Apr - 14:36:37 10° W 14:42:47 60° N 14:48:47 10° ENE daylight
17 Apr - 16:21:46 10° WNW 16:27:57 68° NNE 16:33:44 10° E daylight
17 Apr - 18:06:46 10° WNW 18:12:37 55° SSW 18:17:55 10° SE daylight
17 Apr - 19:53:36 10° WSW 19:56:18 14° SW 19:58:53 10° SSW visible
18 Apr - 10:11:41 10° S 10:15:24 18° SE 10:19:15 10° E daylight
18 Apr - 11:53:28 10° SW 11:59:19 61° SSE 12:05:28 10° ENE daylight
18 Apr - 13:37:59 10° W 13:44:07 67° NNW 13:50:18 10° ENE daylight
18 Apr - 15:23:09 10° WNW 15:29:20 61° N 15:35:15 10° E daylight
18 Apr - 17:08:05 10° WNW 17:14:14 77° SSW 17:19:55 10° ESE daylight
18 Apr - 18:53:44 10° W 18:58:17 23° SW 19:02:31 10° SSE daylight
19 Apr - 10:55:31 10° SW 11:00:57 43° SSE 11:06:44 10° ENE daylight
19 Apr - 12:39:25 10° WSW 12:45:29 78° NNW 12:51:45 10° ENE daylight
19 Apr - 14:24:29 10° WNW 14:30:37 58° N 14:36:40 10° E daylight
19 Apr - 16:09:27 10° WNW 16:15:42 83° NNE 16:21:37 10° ESE daylight
19 Apr - 17:54:36 10° W 18:00:06 37° SW 18:05:12 10° SSE daylight
20 Apr - 09:57:58 10° SSW 10:02:41 28° SE 10:07:44 10° E daylight
20 Apr - 11:41:00 10° WSW 11:46:53 84° SSE 11:53:08 10° ENE daylight
20 Apr - 13:25:50 10° W 13:31:53 60° N 13:38:02 10° ENE daylight
20 Apr - 15:10:50 10° WNW 15:17:04 70° NNE 15:23:07 10° E daylight
20 Apr - 16:55:44 10° WNW 17:01:45 54° SSW 17:07:23 10° SE daylight
20 Apr - 18:42:33 10° WSW 18:45:31 14° SW 18:48:22 10° SSW daylight
21 Apr - 09:01:02 10° S 09:04:30 17° SE 09:08:11 10° E daylight
21 Apr - 10:42:46 10° SW 10:48:21 63° SSE 10:54:25 10° ENE daylight
21 Apr - 12:27:11 10° W 12:33:07 65° N 12:39:20 10° ENE daylight
21 Apr - 14:12:12 10° WNW 14:18:19 62° N 14:24:26 10° E daylight
21 Apr - 15:57:01 10° WNW 16:03:14 75° SSW 16:09:12 10° ESE daylight
21 Apr - 17:42:37 10° W 17:47:21 24° SW 17:51:50 10° SSE daylight
22 Apr - 09:44:48 10° SW 09:49:56 43° SSE 09:55:33 10° ENE daylight
22 Apr - 11:28:38 10° WSW 11:34:24 76° NNW 11:40:36 10° ENE daylight
22 Apr - 13:13:32 10° WNW 13:19:31 58° N 13:25:40 10° E daylight
22 Apr - 14:58:21 10° WNW 15:04:36 86° NNE 15:10:44 10° ESE daylight
22 Apr - 16:43:25 10° W 16:49:01 36° SW 16:54:22 10° SSE daylight
